Showing default

HISPASAT 30W-6, 43228

Orbit data source: Space-Track

HISPASAT 30W-6, 43228 is a payload satellite owned by Hispasat (ES) in GEO that was launched on Tue, 06 Mar 2018 UTC via an FALCON 9 launch vehicle from the Air Force Eastern Test Range (AFETR). Payload-class satellites include a variety of spacecraft equipped with specific instruments for various scientific and technological missions. These include communications satellites like Starlink; space stations such as the ISS; scientific satellites like the Hubble; Earth observation satellites from companies like Planet Labs, Umbra, and HawkEye 360; GPS; miniature CubeSats for education and research; and military/defense satellites.

Not visible in the next 10 days
Identifier
43228, 2018-023A
Orbit
GEO
Country
Flag of ESES / SPN
Related business
Manufacturer
Maxar SSL
Mission
Operational Commercial Communications
Bus & Motor
LS-1300, R-4D
Mass
6,092 kg wet, 2,634 kg dry
Launch date (UTC)
2018-03-06 (7 years ago)
Launch vehicle
FALCON 9
Launch site
Air Force Eastern Test Range (AFETR)
Object type
Payload
Rocket body
Debris
Shape & HBR
Box + 2 Pan, 13.1 m
Radar Cross Section
120.644 m², Large (>1 m²)

Expand to show TLE details & history
Last TLE update: 1 day ago

TLE from 1 day ago
0 HISPASAT 30W-6
1 43228U 18023A   25241.87793212 -.00000212  00000-0  00000-0 0  9992
2 43228   0.0401  46.6992 0003714  84.6306 133.0544  1.00271770 27480
Epoch: 2025-08-29T21:04Z
TLE epoch observation values (Epoch: 2025-08-29T21:04:13.335Z)
Latitude
-0.00891°
Longitude
-29.96337°
Altitude
35,796.775 km
Speed
3.074 km/s
True Right ascension
17h 37m 38s
True Declination
0° 00' 32"
Sunlit
Object was in daylight at epoch
Visualization orbit readout
Latitude
Unknown
Longitude
Unknown
Altitude
Unknown
Speed
Unknown
Apparent Right ascension
Unknown
Apparent Declination
Unknown
Sunlit
N/A
Visualization observer readout
Local Sidereal Time
15:47:03
Azimuth
Unknown
Elevation
Unknown
Doppler factor
Unknown
Orbital elements
Apogee altitude
35,803.33 km
Perigee altitude
35,772.009 km
Semi-major axis
42,165.807 km
Eccentricity
0.00037
Inclination
0.0401°
RAAN
46.6992°
Arg. of periapsis
84.6306°
True anomaly
133.08549°
Mean anomaly
133.0544°
Eccentric anomaly
133.06995°
Mean motion
0.25067 °/min
Orbital period
1,436.15 mins
BSTAR
0
Loading maneuver chart data...
Computing Atmospheric mass density...
Loading historical data...
Loading historical data...
Loading historical data...
Loading historical data...
Loading historical data...
Loading historical data...
Loading historical data...
Other satellites on launch #23 in the year 2018 (2018-03-06 UTC)

Documentation

Showing up to 5 results
|